Location: Hradec Kralove
(50.2170°N, 15.8330°E)
Time: 10:35:12
(UTC+01:00)

ISS - Pass Details

Date: 18 February 2026
Orbit: 416 x 426 km, 51.6° (Epoch: 9 March)

Event Time Altitude Azimuth Distance (km) Brightness Sun altitude
Exits shadow 04:54:48 40° 159° (SSE) 627 -2.9 -21.0°
Maximum altitude 04:54:57 41° 151° (SSE) 623 -2.8 -21.0°
Drops below altitude 10° 04:58:07 10° 80° (E) 1,495 0.2 -20.5°
Sets 05:00:17 0° 73° (ENE) 2,360 1.6 -20.1°
